星链-1623 (STARLINK-1623 )

导读 | 豆包AI

STARLINK-1623是美国太空探索技术公司(SpaceX)星链(Starlink)计划中的卫星,于2020年8月18日发射升空,属于星链低轨卫星互联网星座的组成部分。星链项目旨在全球范围内提供高速互联网接入服务,该卫星入轨后承担相关通信服务任务,服务全球用户的网络连接需求。

基本信息
目录编号:
46129
目录名称:
STARLINK-1623
国际标识:
2020-057N
轨道中心:
EARTH
卫星名称:
星链-1623
卫星全名:
星链-1623 (STARLINK-1623 )
卫星状态:
在轨 (已飞行2034 天)
发射日期:
2020-08-18 UTC
国别 :
美国 (US)
星等 :
--
轨道信息
数据来源 国际轨道数据
星历时间: 2026-03-14T08:00:02+0800
5小时前
查看轨道信息
半长轴: 6784.459km
偏心率: 0.0005539
轨道倾角: 53.048°
近地点辐角 188.022°
升交点赤经 235.197°
平近点角 101.300°
近地点: 402.564km
远地点: 410.08km
周期: 92.690分钟
每日圈数: 15.535668
详细信息
固有亮度:
5
最大亮度:
2.5
卫星平台:
Starlink V1.0
覆盖范围:
全球
运营商:
太空探索技术公司
运营商所在国:
美国
制造商(研发单位):
太空探索技术公司
制造商所在国:
美国
使用方式:
暂无
卫星简介
星链(Starlink)计划是由太空探索技术公司(SpaceX)提出的一个巨型低轨卫星互联网星座项目,计划在2019年至2024年间在太空搭建由约1.2万颗卫星组成的“星链”网络,其中1584颗将部署在地球上空550千米处的近地轨道,并从2020年开始工作。该卫星仍在工作。
2D轨道图
3D轨道图
轨道高度分析图
轨道倾角分析图
轨道综合分析图
查看轨道综合分析图